This is the latest recevied weather packets stored in our database for station/object K5NAN. If no packets are shown the sender has not sent any weather packets the latest 10 day(s).
| Time | Temp. | Humidity | Pressure | Rain* | Wind** | Luminosity | Snow |
|---|---|---|---|---|---|---|---|
| 1777852456 | 25° C | 38% | 1014.6 hPa | 0 mm | - | 56 W/m² | - |
| 1777852154 | 25° C | 39% | 1014.4 hPa | 0 mm | - | 74 W/m² | - |
| 1777851851 | 25° C | 38% | 1014.5 hPa | 0 mm | - | 84 W/m² | - |
| 1777851549 | 25° C | 39% | 1014.5 hPa | 0 mm | - | 101 W/m² | - |
| 1777851245 | 25.56° C | 38% | 1014.4 hPa | 0 mm | - | 110 W/m² | - |
| 1777850941 | 25.56° C | 38% | 1014.7 hPa | 0 mm | - | 128 W/m² | - |
| 1777850639 | 25.56° C | 37% | 1014.6 hPa | 0 mm | - | 139 W/m² | - |
| 1777850336 | 25.56° C | 38% | 1014.5 hPa | 0 mm | - | 160 W/m² | - |
| 1777850033 | 25.56° C | 37% | 1014.7 hPa | 0 mm | - | 185 W/m² | - |
| 1777849729 | 25.56° C | 37% | 1014.7 hPa | 0 mm | - | 216 W/m² | - |
| 1777849426 | 26.11° C | 36% | 1014.6 hPa | 0 mm | - | 233 W/m² | - |
| 1777849124 | 26.11° C | 38% | 1014.6 hPa | 0 mm | - | 251 W/m² | - |
| 1777848820 | 26.11° C | 36% | 1014.8 hPa | 0 mm | - | 271 W/m² | - |
| 1777848516 | 26.11° C | 35% | 1014.7 hPa | 0 mm | - | 292 W/m² | - |
| 1777848214 | 26.11° C | 34% | 1014.9 hPa | 0 mm | - | 298 W/m² | - |
| 1777847911 | 26.11° C | 37% | 1014.8 hPa | 0 mm | - | 319 W/m² | - |
| 1777847609 | 26.11° C | 36% | 1015 hPa | 0 mm | - | 336 W/m² | - |
| 1777847304 | 26.11° C | 34% | 1015.2 hPa | 0 mm | - | 353 W/m² | - |
| 1777847003 | 26.11° C | 36% | 1015.3 hPa | 0 mm | - | 369 W/m² | - |
| 1777846701 | 26.67° C | 34% | 1015.1 hPa | 0 mm | - | 383 W/m² | - |
| 1777846400 | 26.67° C | 34% | 1015.2 hPa | 0 mm | - | 404 W/m² | - |
| 1777846095 | 26.67° C | 34% | 1015.2 hPa | 0 mm | - | 419 W/m² | - |
| 1777845792 | 26.11° C | 34% | 1015.1 hPa | 0 mm | - | 437 W/m² | - |
| 1777845489 | 26.11° C | 35% | 1015.1 hPa | 0 mm | - | 457 W/m² | - |
| 1777845186 | 26.67° C | 33% | 1015.2 hPa | 0 mm | - | 472 W/m² | - |
* Rain latest hour (hover to see other rain measurements)
** Current wind speed in m/s (hover to see current wind gust speed)